Tracking 31027 objects as of 19-Jul-2025
HD Live streaming from Space Station
objects crossing your sky now

STARLINK-31786

Track STARLINK-31786 now!
10-day predictions
STARLINK-31786 is classified as:


NORAD ID: 59771
Int'l Code: 2024-091U
Perigee: 481.5 km
Apogee: 483.3 km
Inclination: 53.2 °
Period: 94.1 minutes
Semi major axis: 6853 km
RCS: Unknown
Launch date: May 14, 2024
Source: United States (US)
Launch site: AIR FORCE WESTERN TEST RANGE (AFWTR)
Your satellite tracking list
ST5-A
Track 1 satellite(s)




NASA's NSSDC Master Catalog

Two Line Element Set (TLE):
1 59771U 24091U   25199.80953739 -.00000498  00000-0 -46889-5 0  9998
2 59771  53.1610  33.4243 0001335  88.3846 271.7307 15.30189537 67142
Source of the keplerian elements: AFSPC